GW5341 Weather Reports


time (UTC)temp
C
wind
direction
speed
KPH
gust
KPH
rain 1hr
cm
rain 24hr
cm
rain mn
cm
humidity
%
barometer
mb
20260505023015 3 213 3.2 11.3 0.03 0.48 0.48 90 1013.6
20260505022503 3 216 4.8 9.7 0.03 0.48 0.48 90 1013.7
20260505022004 3 229 3.2 9.7 0.03 0.48 0.48 90 1013.8
20260505021512 3 239 4.8 8.0 0.05 0.48 0.48 90 1013.8
20260505021002 3 229 4.8 8.0 0.10 0.48 0.48 89 1013.7
20260505020504 3 188 3.2 17.7 0.15 0.48 0.48 89 1013.6
20260505020012 3 181 3.2 19.3 0.20 0.48 0.48 88 1013.6
20260505015504 3 101 14.5 19.3 0.20 0.46 0.46 88 1013.5
20260505015005 3 101 12.9 17.7 0.25 0.46 0.46 88 1013.5
20260505014514 3 99 6.4 9.7 0.36 0.46 0.46 87 1013.9
20260505014003 3 78 6.4 9.7 0.41 0.46 0.46 87 1014.0
20260505013503 3 51 1.6 4.8 0.43 0.46 0.46 87 1014.0
20260505013013 3 68 3.2 6.4 0.46 0.46 0.46 87 1014.1
20260505012504 3 43 1.6 6.4 0.46 0.46 0.46 88 1014.2
20260505012003 3 337 3.2 16.1 0.46 0.46 0.46 88 1014.2
20260505011515 3 358 3.2 19.3 0.43 0.43 0.43 88 1014.1
20260505011008 3 335 14.5 22.5 0.38 0.38 0.38 88 1014.0
20260505010503 3 335 11.3 25.7 0.33 0.33 0.33 88 1013.8
20260505010012 3 333 16.1 25.7 0.28 0.28 0.28 87 1013.4
20260505005503 3 313 12.9 25.7 0.25 0.25 0.25 86 1013.3
20260505005004 4 333 16.1 27.4 0.20 0.20 0.20 83 1013.2
20260505004514 5 332 17.7 27.4 0.10 0.10 0.10 79 1013.2
20260505004004 7 337 16.1 27.4 0.05 0.05 0.05 71 1013.0
20260505003508 7 342 0.0 4.8 0.03 0.03 0.03 68 1012.7
20260505003011 7 96 1.6 11.3 0.00 0.00 0.00 65 1012.5
20260505002504 8 114 4.8 14.5 0.00 0.00 0.00 64 1012.5
20260505002004 8 89 8.0 14.5 0.00 0.00 0.00 64 1012.5
20260505001512 8 92 8.0 16.1 0.00 0.00 0.00 64 1012.7
20260505001007 8 102 4.8 22.5 0.00 0.00 0.00 65 1012.7
20260505000505 8 139 12.9 27.4 0.00 0.00 0.00 65 1012.7
20260505000018 8 104 17.7 27.4 0.00 0.00 0.00 63 1012.8
20260504235505 8 117 11.3 17.7 0.00 0.00 0.00 62 1012.8
20260504235003 8 104 11.3 17.7 0.00 0.00 0.00 61 1012.8
20260504234514 8 124 9.7 19.3 0.00 0.00 0.00 62 1012.8
20260504234003 9 123 12.9 19.3 0.00 0.00 0.00 60 1012.7
20260504233503 10 128 8.0 20.9 0.00 0.00 0.00 59 1012.7
20260504233016 10 150 12.9 24.1 0.00 0.00 0.00 61 1012.5
20260504232504 10 174 9.7 24.1 0.00 0.00 0.00 62 1012.6
20260504232006 9 126 12.9 20.9 0.00 0.00 0.00 61 1012.7
20260504231515 8 103 12.9 20.9 0.00 0.00 0.00 66 1012.7
20260504231008 8 137 4.8 12.9 0.00 0.00 0.00 68 1012.7
20260504230507 7 121 3.2 9.7 0.00 0.00 0.00 75 1013.0
20260504230016 7 211 4.8 24.1 0.00 0.00 0.00 74 1013.2
20260504225505 7 208 11.3 29.0 0.00 0.00 0.00 73 1013.3
20260504225006 8 243 20.9 32.2 0.00 0.00 0.00 65 1013.4
20260504224516 8 259 25.7 32.2 0.00 0.00 0.00 61 1013.4
20260504224003 9 251 9.7 16.1 0.00 0.00 0.00 58 1013.2
20260504223507 10 252 11.3 17.7 0.00 0.00 0.00 55 1013.2
20260504223015 10 243 12.9 17.7 0.00 0.00 0.00 53 1013.2
20260504222505 10 245 9.7 14.5 0.00 0.00 0.00 51 1013.2
20260504222006 11 136 6.4 12.9 0.00 0.00 0.00 54 1013.1
20260504221522 10 234 6.4 20.9 0.00 0.00 0.00 60 1013.2
20260504221006 8 233 11.3 24.1 0.00 0.00 0.00 62 1013.4
20260504220506 8 231 16.1 24.1 0.00 0.00 0.00 64 1013.5
20260504220023 7 212 17.7 30.6 0.00 0.00 0.00 64 1013.4
20260504215504 7 223 19.3 32.2 0.00 0.00 0.00 65 1013.4
20260504215007 7 214 17.7 40.2 0.00 0.00 0.00 69 1013.4
20260504214519 7 224 27.4 40.2 0.00 0.00 0.00 67 1013.4
20260504214008 7 260 29.0 37.0 0.00 0.00 0.00 66 1013.3
20260504213507 7 259 25.7 37.0 0.00 0.00 0.00 63 1013.5
20260504213018 8 224 22.5 35.4 0.00 0.00 0.00 63 1013.8
20260504212504 8 264 25.7 38.6 0.00 0.00 0.00 60 1013.8
20260504212003 8 233 27.4 38.6 0.00 0.00 0.00 57 1013.7
20260504211519 8 248 30.6 45.1 0.00 0.00 0.00 55 1013.5
20260504211003 9 245 27.4 48.3 0.00 0.00 0.00 54 1013.5
20260504210506 10 277 35.4 48.3 0.00 0.00 0.00 52 1013.2
20260504210011 11 268 25.7 51.5 0.00 0.00 0.00 48 1013.1
20260504205505 12 272 29.0 51.5 0.00 0.00 0.00 42 1013.0
20260504205005 13 301 20.9 29.0 0.00 0.00 0.00 32 1012.5
20260504204516 14 290 14.5 17.7 0.00 0.00 0.00 30 1012.3
20260504204007 14 256 8.0 17.7 0.00 0.00 0.00 28 1012.3
20260504203507 15 280 4.8 16.1 0.00 0.00 0.00 28 1012.2
20260504203021 15 94 6.4 33.8 0.00 0.00 0.00 30 1012.3
20260504202508 15 291 12.9 33.8 0.00 0.00 0.00 28 1012.3
20260504202007 16 297 17.7 33.8 0.00 0.00 0.00 30 1012.2
20260504201506 15 98 1.6 17.7 0.00 0.00 0.00 31 1012.5
20260504201002 15 284 6.4 16.1 0.00 0.00 0.00 31 1012.6
20260504200502 15 288 6.4 16.1 0.00 0.00 0.00 31 1012.8
20260504200016 14 29 4.8 29.0 0.00 0.00 0.00 33 1012.7
20260504195504 14 290 9.7 29.0 0.00 0.00 0.00 31 1012.8
20260504195003 13 292 12.9 20.9 0.00 0.00 0.00 31 1012.9
20260504194512 14 240 6.4 12.9 0.00 0.00 0.00 35 1012.9
20260504194005 13 228 4.8 20.9 0.00 0.00 0.00 39 1013.0
20260504193504 13 264 12.9 20.9 0.00 0.00 0.00 35 1013.0
20260504193017 13 283 4.8 19.3 0.00 0.00 0.00 34 1013.0
20260504192506 14 197 8.0 17.7 0.00 0.00 0.00 35 1013.0
20260504192007 14 292 9.7 27.4 0.00 0.00 0.00 35 1013.2
20260504191536 14 226 9.7 27.4 0.00 0.00 0.00 36 1013.2
20260504191007 13 269 12.9 25.7 0.00 0.00 0.00 34 1013.3
20260504190507 13 269 16.1 24.1 0.00 0.00 0.00 35 1013.4
20260504190004 12 266 11.3 16.1 0.00 0.00 0.00 40 1013.4
20260504185506 12 299 6.4 22.5 0.00 0.00 0.00 40 1013.6
20260504185002 12 274 14.5 22.5 0.00 0.00 0.00 38 1013.8
20260504184513 12 292 14.5 25.7 0.00 0.00 0.00 39 1013.8
20260504184003 12 285 6.4 30.6 0.00 0.00 0.00 42 1013.8
20260504183503 12 292 12.9 30.6 0.00 0.00 0.00 42 1014.0
20260504183033 13 322 17.7 30.6 0.00 0.00 0.00 41 1014.0
20260504182509 12 283 17.7 25.7 0.00 0.00 0.00 41 1014.1
20260504182007 12 275 12.9 25.7 0.00 0.00 0.00 43 1014.3
20260504181524 12 290 6.4 19.3 0.00 0.00 0.00 45 1014.4
20260504181007 12 276 8.0 19.3 0.00 0.00 0.00 45 1014.6
20260504180511 12 290 14.5 24.1 0.00 0.00 0.00 43 1014.9
20260504180026 12 304 12.9 29.0 0.00 0.00 0.00 40 1014.9
20260504175507 13 297 19.3 29.0 0.00 0.00 0.00 41 1014.9
20260504175007 12 241 17.7 25.7 0.00 0.00 0.00 42 1014.9
20260504174526 12 304 12.9 27.4 0.00 0.00 0.00 48 1014.9
20260504174003 12 301 16.1 27.4 0.00 0.00 0.00 44 1014.9
20260504173503 12 300 9.7 27.4 0.00 0.00 0.00 43 1015.1
20260504173010 12 289 19.3 27.4 0.00 0.00 0.00 42 1015.1
20260504172504 12 297 11.3 24.1 0.00 0.00 0.00 45 1015.2
20260504172007 12 280 14.5 24.1 0.00 0.00 0.00 47 1015.1
20260504171516 11 287 9.7 22.5 0.00 0.00 0.00 46 1015.3
20260504171010 11 274 9.7 29.0 0.00 0.00 0.00 47 1015.4
20260504170515 11 274 16.1 29.0 0.00 0.00 0.00 48 1015.4
20260504151003 4 317 0.0 0.0 0.00 0.00 0.00 59 1016.2
20260504150511 4 86 0.0 0.0 0.00 0.00 0.00 61 1016.3
20260504141006 1 280 0.0 0.0 0.00 0.00 0.00 68 1016.6
20260504140504 0 281 0.0 0.0 0.00 0.00 0.00 70 1016.7
20260504130504 -3 129 0.0 0.0 0.00 0.00 0.00 84 1016.5
20260504110506 -4 191 0.0 0.0 0.00 0.00 0.00 84 1016.0
20260504100503 -3 188 0.0 0.0 0.00 0.00 0.00 83 1015.9
20260504081527 -1 165 0.0 0.0 0.00 0.00 0.00 75 1016.2
20260504081012 -1 165 0.0 0.0 0.00 0.00 0.00 73 1016.3
20260504080510 -1 165 0.0 0.0 0.00 0.00 0.00 73 1016.3
20260504050508 3 236 0.0 4.8 0.00 0.00 0.00 55 1016.7
20260504045506 3 155 0.0 4.8 0.00 0.00 0.00 59 1016.8
20260504045008 3 155 0.0 0.0 0.00 0.00 0.00 59 1016.8
20260504044535 3 150 0.0 0.0 0.00 0.00 0.00 56 1016.9
20260504044009 3 281 0.0 0.0 0.00 0.00 0.00 55 1016.9
20260504043510 3 268 0.0 0.0 0.00 0.00 0.00 54 1017.0
20260504043027 3 150 0.0 0.0 0.00 0.00 0.00 55 1016.9
20260504042509 4 151 0.0 0.0 0.00 0.00 0.00 52 1017.0
20260504042009 5 150 0.0 0.0 0.00 0.00 0.00 51 1016.8
20260504041528 5 154 0.0 3.2 0.00 0.00 0.00 50 1016.9
20260504041005 5 150 0.0 4.8 0.00 0.00 0.00 49 1016.9
20260504040507 6 174 3.2 6.4 0.00 0.00 0.00 50 1016.8
20260504040022 6 195 4.8 6.4 0.00 0.00 0.00 48 1016.9
20260504035507 7 166 0.0 3.2 0.00 0.00 0.00 43 1016.9
20260504035006 7 165 1.6 4.8 0.00 0.00 0.00 43 1016.9
20260504034537 8 191 1.6 4.8 0.00 0.00 0.00 42 1016.9
20260504034003 8 184 0.0 0.0 0.00 0.00 0.00 43 1016.8
20260504033503 8 150 0.0 0.0 0.00 0.00 0.00 43 1016.8
20260504033007 8 150 0.0 0.0 0.00 0.00 0.00 42 1016.8
20260504032503 8 153 0.0 0.0 0.00 0.00 0.00 42 1016.8
20260504032004 8 123 0.0 0.0 0.00 0.00 0.00 42 1016.8
20260504031516 8 227 0.0 0.0 0.00 0.00 0.00 43 1016.8
20260504031006 8 152 0.0 3.2 0.00 0.00 0.00 43 1016.8
20260504030504 8 149 0.0 6.4 0.00 0.00 0.00 43 1016.8
20260504030036 8 172 1.6 6.4 0.00 0.00 0.00 44 1016.8
20260504025507 8 203 3.2 4.8 0.00 0.00 0.00 43 1016.7
20260504025007 8 198 3.2 9.7 0.00 0.00 0.00 43 1016.7
20260504024524 9 191 0.0 11.3 0.00 0.00 0.00 41 1016.7
20260504024012 10 211 6.4 14.5 0.00 0.00 0.00 39 1016.8
20260504023507 10 233 9.7 14.5 0.00 0.00 0.00 38 1016.8